Location: Rayville (historical)
(39.9992°N, 99.6815°W)
Time: 18:06:05
(UTC+00:00)

STARLINK-78 - Pass Details

Date: 18 February 2020
Orbit: 528 x 531 km, 53.0° (Epoch: 01 April)

Event Time Altitude Azimuth Distance (km) Brightness Sun altitude
Rises 01:30:36 0° 222° (SW) 2,650 7.8 -14.8°
Reaches altitude 10° 01:32:49 10° 219° (SW) 1,764 6.8 -15.2°
Maximum altitude 01:36:47 67° 138° (SE) 575 3.5 -16.0°
Enters shadow 01:38:34 31° 63° (ENE) 948 4.3 -16.3°
